Hillsdale, MI

4:40 AM EDT on October 17, 2019 (GMT -0400)
Hillsdale Municipal

Weather History for KJYM - September, 2019

Change the Weather History Date:

Monday, September 23, 2019

  Actual Average Record
Temperature  
Mean Temperature 64 °F -  
Max Temperature 72 °F 68 °F 89 °F (2017)
Min Temperature 55 °F 45 °F 29 °F (1974)
Degree Days  
Heating Degree Days 2    
Growing Degree Days 14 (Base 50)    
Moisture  
Dew Point 57 °F    
Average Humidity 73    
Maximum Humidity 96    
Minimum Humidity 44    
Precipitation  
Precipitation 0.11 in - - ()
Sea Level Pressure  
Sea Level Pressure 29.92 in    
Wind  
Wind Speed 10 mph ()    
Max Wind Speed 21 mph    
Max Gust Speed 30 mph    
Visibility 9.8 miles    
Events Rain    
Averages and records for this station are not official NWS values.
T = Trace of Precipitation, MM = Missing Value Source: Averaged Metar Reports

Daily Weather History Graph

Daily Weather History Graph

Search for Another Location

Airport or City:

Astronomy

Sep. 23, 2019 Rise Set
Actual Time 7:26 AM EDT 7:34 PM EDT
Civil Twilight 6:58 AM EDT 8:02 PM EDT
Nautical Twilight 6:26 AM EDT 8:34 PM EDT
Astronomical Twilight 5:52 AM EDT 9:07 PM EDT
Moon 1:02 AM EDT (9/23) 4:32 PM EDT (9/23)
Length of Visible Light 13h 03m
Length of Day
12h 07m
Waning Crescent, 33% of the Moon is Illuminated
Sep 23
Waning Crescent
Sep 28
New
Oct 5
First Quarter
Oct 13
Full
Oct 21
Last Quarter

Hourly Weather History & Observations

Time (EDT) Temp. Dew Point Humidity Pressure Visibility Wind Dir Wind Speed Gust Speed Precip Events Conditions
12:15 AM 71.6 °F 63.5 °F 76% 29.85 in 10.0 mi SW 10.4 mph - N/A   Overcast
12:20 AM 72.0 °F 63.5 °F 75% 29.85 in 10.0 mi SW 13.8 mph 20.7 mph N/A   Overcast
12:38 AM 72.3 °F 64.4 °F 76% 29.85 in 10.0 mi SW 15.0 mph 24.2 mph N/A   Overcast
12:56 AM 72.1 °F 64.8 °F 78% 29.84 in 10.0 mi SW 15.0 mph 29.9 mph N/A   Overcast
1:15 AM 71.8 °F 65.5 °F 80% 29.84 in 10.0 mi WSW 16.1 mph 24.2 mph N/A   Overcast
1:16 AM 71.8 °F 65.5 °F 80% 29.84 in 10.0 mi WSW 13.8 mph 24.2 mph N/A   Overcast
1:35 AM 72.0 °F 66.2 °F 82% 29.84 in 10.0 mi SW 11.5 mph 24.2 mph N/A   Overcast
1:36 AM 72.0 °F 66.2 °F 82% 29.84 in 10.0 mi SW 12.7 mph 24.2 mph N/A   Overcast
1:59 AM 71.8 °F 66.2 °F 83% 29.84 in 10.0 mi SW 13.8 mph 21.9 mph N/A   Overcast
2:17 AM 71.6 °F 66.2 °F 83% 29.85 in 10.0 mi SW 6.9 mph 20.7 mph N/A   Overcast
2:35 AM 71.4 °F 66.2 °F 84% 29.84 in 10.0 mi SW 10.4 mph 19.6 mph N/A   Overcast
2:55 AM 70.3 °F 66.6 °F 88% 29.84 in 5.0 mi SW 10.4 mph 16.1 mph N/A Rain Rain
2:56 AM 70.3 °F 66.6 °F 88% 29.84 in 5.0 mi SW 10.4 mph - N/A Rain Rain
3:15 AM 68.7 °F 66.6 °F 93% 29.85 in 2.0 mi WNW 13.8 mph - 0.10 in Rain Rain
3:38 AM 67.8 °F 66.0 °F 94% 29.84 in 10.0 mi West 6.9 mph - 0.11 in Rain Light Rain
3:56 AM 67.5 °F 66.0 °F 95% 29.84 in 10.0 mi West 5.8 mph - 0.11 in   Overcast
4:15 AM 67.3 °F 66.0 °F 96% 29.84 in 10.0 mi WSW 4.6 mph - N/A   Overcast
4:35 AM 67.3 °F 66.0 °F 96% 29.85 in 10.0 mi West 4.6 mph - N/A   Overcast
4:36 AM 67.5 °F 66.0 °F 95% 29.85 in 10.0 mi West 4.6 mph - N/A   Overcast
4:59 AM 67.1 °F 65.1 °F 93% 29.85 in 10.0 mi West 9.2 mph - N/A   Overcast
5:17 AM 66.6 °F 64.4 °F 93% 29.85 in 10.0 mi WNW 6.9 mph - N/A   Overcast
5:35 AM 65.7 °F 63.9 °F 94% 29.85 in 10.0 mi West 5.8 mph - N/A   Mostly Cloudy
5:55 AM 65.3 °F 63.5 °F 94% 29.84 in 10.0 mi West 3.5 mph - N/A   Clear
5:56 AM 65.3 °F 63.5 °F 94% 29.84 in 10.0 mi West 3.5 mph - N/A   Clear
6:15 AM 65.3 °F 63.5 °F 94% 29.86 in 10.0 mi West 8.1 mph - N/A   Mostly Cloudy
6:20 AM 65.3 °F 63.5 °F 94% 29.86 in 10.0 mi West 6.9 mph - N/A   Mostly Cloudy
6:38 AM 64.9 °F 63.5 °F 95% 29.87 in 10.0 mi West 8.1 mph - N/A   Overcast
6:56 AM 64.8 °F 63.1 °F 94% 29.87 in 10.0 mi West 6.9 mph - N/A   Overcast
7:15 AM 64.6 °F 63.1 °F 95% 29.88 in 10.0 mi West 9.2 mph - N/A   Overcast
7:16 AM 64.6 °F 63.0 °F 94% 29.88 in 10.0 mi West 9.2 mph - N/A   Overcast
7:35 AM 64.4 °F 62.8 °F 94% 29.89 in 10.0 mi West 8.1 mph - N/A   Overcast
7:36 AM 64.4 °F 62.8 °F 94% 29.89 in 10.0 mi West 9.2 mph - N/A   Overcast
7:59 AM 63.7 °F 61.7 °F 93% 29.89 in 10.0 mi West 9.2 mph - N/A   Mostly Cloudy
8:17 AM 63.5 °F 61.7 °F 94% 29.90 in 10.0 mi West 5.8 mph - N/A   Scattered Clouds
8:35 AM 63.5 °F 61.7 °F 94% 29.90 in 10.0 mi West 9.2 mph - N/A   Mostly Cloudy
8:36 AM 63.7 °F 61.7 °F 93% 29.90 in 10.0 mi West 9.2 mph - N/A   Mostly Cloudy
8:55 AM 64.4 °F 62.1 °F 92% 29.91 in 10.0 mi West 9.2 mph - N/A   Overcast
8:56 AM 64.4 °F 62.1 °F 92% 29.91 in 10.0 mi West 9.2 mph - N/A   Overcast
9:15 AM 65.1 °F 62.4 °F 91% 29.92 in 10.0 mi West 10.4 mph - N/A   Overcast
9:38 AM 65.5 °F 62.1 °F 89% 29.92 in 10.0 mi West 10.4 mph - N/A   Overcast
9:56 AM 66.6 °F 61.9 °F 85% 29.92 in 10.0 mi WNW 10.4 mph 16.1 mph N/A   Overcast
10:15 AM 68.4 °F 61.5 °F 79% 29.92 in 10.0 mi West 11.5 mph 17.3 mph N/A   Mostly Cloudy
10:16 AM 68.5 °F 61.7 °F 79% 29.92 in 10.0 mi West 9.2 mph - N/A   Mostly Cloudy
10:35 AM 66.9 °F 58.8 °F 75% 29.93 in 10.0 mi WNW 15.0 mph 23.0 mph N/A   Mostly Cloudy
10:36 AM 66.4 °F 58.5 °F 76% 29.93 in 10.0 mi WNW 12.7 mph 23.0 mph N/A   Mostly Cloudy
10:59 AM 68.9 °F 58.8 °F 70% 29.94 in 10.0 mi West 12.7 mph 23.0 mph N/A   Scattered Clouds
11:17 AM 68.9 °F 57.7 °F 68% 29.94 in 10.0 mi West 13.8 mph 20.7 mph N/A   Scattered Clouds
11:35 AM 68.5 °F 57.7 °F 68% 29.94 in 10.0 mi WNW 13.8 mph 18.4 mph N/A   Mostly Cloudy
11:55 AM 69.4 °F 57.4 °F 65% 29.94 in 10.0 mi West 12.7 mph 18.4 mph N/A   Overcast
11:56 AM 69.6 °F 57.4 °F 65% 29.94 in 10.0 mi West 13.8 mph 23.0 mph N/A   Overcast
12:15 PM 68.0 °F 55.4 °F 64% 29.94 in 10.0 mi WNW 12.7 mph 23.0 mph N/A   Mostly Cloudy
12:20 PM 68.5 °F 56.1 °F 64% 29.94 in 10.0 mi West 15.0 mph 21.9 mph N/A   Mostly Cloudy
12:38 PM 70.3 °F 55.6 °F 59% 29.94 in 10.0 mi West 16.1 mph 20.7 mph N/A   Mostly Cloudy
12:56 PM 68.2 °F 55.4 °F 64% 29.94 in 10.0 mi WNW 12.7 mph 21.9 mph N/A   Mostly Cloudy
1:15 PM 70.5 °F 55.8 °F 59% 29.94 in 10.0 mi WNW 17.3 mph 21.9 mph N/A   Scattered Clouds
1:35 PM 71.8 °F 52.9 °F 51% 29.94 in 10.0 mi WNW 16.1 mph 20.7 mph N/A   Scattered Clouds
1:36 PM 71.4 °F 52.9 °F 52% 29.94 in 10.0 mi WNW 15.0 mph 20.7 mph N/A   Scattered Clouds
1:59 PM 72.3 °F 51.4 °F 48% 29.94 in 10.0 mi West 16.1 mph 24.2 mph N/A   Scattered Clouds
2:17 PM 71.8 °F 50.7 °F 47% 29.94 in 10.0 mi West 15.0 mph 23.0 mph N/A   Mostly Cloudy
2:35 PM 71.8 °F 50.9 °F 48% 29.94 in 10.0 mi West 16.1 mph 24.2 mph N/A   Mostly Cloudy
2:55 PM 70.9 °F 48.2 °F 44% 29.95 in 10.0 mi West 19.6 mph 26.5 mph N/A   Scattered Clouds
2:56 PM 71.1 °F 48.6 °F 45% 29.94 in 10.0 mi West 17.3 mph 26.5 mph N/A   Mostly Cloudy
3:15 PM 69.3 °F 48.2 °F 47% 29.95 in 10.0 mi WNW 20.7 mph 27.6 mph N/A   Scattered Clouds
3:20 PM 68.4 °F 47.7 °F 48% 29.96 in 10.0 mi West 19.6 mph 27.6 mph N/A   Scattered Clouds
3:38 PM 71.2 °F 49.1 °F 45% 29.96 in 10.0 mi West 12.7 mph 24.2 mph N/A   Scattered Clouds
3:56 PM 70.9 °F 48.6 °F 45% 29.96 in 10.0 mi NW 12.7 mph 23.0 mph N/A   Scattered Clouds
4:15 PM 70.0 °F 48.2 °F 46% 29.96 in 10.0 mi NW 20.7 mph 29.9 mph N/A   Mostly Cloudy
4:16 PM 69.8 °F 48.2 °F 46% 29.96 in 10.0 mi WNW 17.3 mph 29.9 mph N/A   Mostly Cloudy
4:35 PM 71.2 °F 48.0 °F 44% 29.96 in 10.0 mi NW 15.0 mph 26.5 mph N/A   Mostly Cloudy
4:36 PM 71.2 °F 48.2 °F 44% 29.96 in 10.0 mi NW 13.8 mph 26.5 mph N/A   Mostly Cloudy
4:59 PM 70.9 °F 49.1 °F 46% 29.96 in 10.0 mi NW 13.8 mph 20.7 mph N/A   Overcast
5:16 PM 69.6 °F 48.0 °F 46% 29.96 in 10.0 mi NW 18.4 mph 26.5 mph N/A   Mostly Cloudy
5:35 PM 68.9 °F 48.6 °F 48% 29.96 in 10.0 mi NW 15.0 mph 21.9 mph N/A   Scattered Clouds
5:36 PM 68.7 °F 48.6 °F 49% 29.96 in 10.0 mi NW 16.1 mph 23.0 mph N/A   Scattered Clouds
5:55 PM 68.2 °F 47.3 °F 47% 29.97 in 10.0 mi NW 16.1 mph 26.5 mph N/A   Clear
5:56 PM 68.2 °F 47.3 °F 47% 29.97 in 10.0 mi NW 15.0 mph 26.5 mph N/A   Clear
6:15 PM 66.0 °F 47.3 °F 51% 29.98 in 10.0 mi WNW 16.1 mph - N/A   Scattered Clouds
6:38 PM 65.1 °F 47.7 °F 53% 29.98 in 10.0 mi WNW 12.7 mph 20.7 mph N/A   Clear
6:56 PM 64.8 °F 48.7 °F 56% 29.98 in 10.0 mi WNW 16.1 mph 20.7 mph N/A   Clear
7:15 PM 63.9 °F 48.6 °F 57% 29.99 in 10.0 mi West 10.4 mph 17.3 mph N/A   Clear
7:16 PM 63.9 °F 48.6 °F 57% 29.99 in 10.0 mi West 9.2 mph 17.3 mph N/A   Clear
7:35 PM 63.0 °F 48.2 °F 59% 29.99 in 10.0 mi WNW 10.4 mph - N/A   Clear
7:59 PM 60.1 °F 48.7 °F 66% 29.99 in 10.0 mi West 6.9 mph - N/A   Clear
8:17 PM 59.2 °F 49.1 °F 69% 29.99 in 10.0 mi West 5.8 mph - N/A   Clear
8:35 PM 58.8 °F 49.3 °F 71% 29.99 in 10.0 mi Calm Calm - N/A   Clear
8:55 PM 58.3 °F 49.3 °F 72% 30.00 in 10.0 mi West 3.5 mph - N/A   Clear
8:56 PM 58.3 °F 49.3 °F 72% 30.00 in 10.0 mi West 3.5 mph - N/A   Clear
9:15 PM 57.7 °F 50.0 °F 75% 30.00 in 10.0 mi Calm Calm - N/A   Clear
9:20 PM 57.7 °F 50.0 °F 75% 30.00 in 10.0 mi Calm Calm - N/A   Clear
9:38 PM 57.2 °F 50.0 °F 77% 30.01 in 10.0 mi Calm Calm - N/A   Clear
9:56 PM 55.9 °F 50.2 °F 81% 30.01 in 10.0 mi West 3.5 mph - N/A   Clear
10:15 PM 55.8 °F 50.4 °F 82% 30.01 in 10.0 mi West 3.5 mph - N/A   Clear
10:35 PM 55.9 °F 50.4 °F 82% 30.01 in 10.0 mi West 3.5 mph - N/A   Clear
10:36 PM 55.8 °F 50.4 °F 82% 30.01 in 10.0 mi West 3.5 mph - N/A   Clear
10:59 PM 55.4 °F 50.0 °F 82% 30.01 in 10.0 mi WSW 3.5 mph - N/A   Clear
11:17 PM 55.6 °F 50.2 °F 82% 30.01 in 10.0 mi West 3.5 mph - N/A   Clear
11:35 PM 55.4 °F 50.2 °F 83% 30.01 in 10.0 mi WSW 4.6 mph - N/A   Clear
11:55 PM 55.0 °F 50.2 °F 84% 30.01 in 10.0 mi West 4.6 mph - N/A   Clear